Location: Azul
(36.7830°S, 59.8500°W)
Time: 09:09:27
(UTC-03:00)

XW-2B - Visible Passes

Search period start: 22 October 2021 00:00
Search period end: 01 November 2021 00:00
Orbit: 503 x 524 km, 97.5° (Epoch: 22 October)

Date Brightness Start Highest point End Pass type
(mag) Time Alt. Az. Time Alt. Az. Time Alt. Az.
22 Oct ? 05:17:25 10° ENE 05:19:43 16° ESE 05:22:04 10° SSE visible
22 Oct ? 19:58:04 10° SSW 20:00:39 17° WSW 20:03:14 10° WNW visible
23 Oct ? 05:03:57 10° ESE 05:04:29 10° ESE 05:05:02 10° ESE visible
27 Oct ? 20:16:16 10° SW 20:17:22 11° WSW 20:18:27 10° W visible
28 Oct ? 05:18:45 10° ENE 05:21:11 16° ESE 05:23:37 10° SSE visible
28 Oct ? 19:59:36 10° SSW 20:02:06 17° WSW 20:04:34 10° WNW visible
29 Oct ? 05:04:57 10° E 05:05:55 11° ESE 05:06:51 10° SE visible
